星链-3931 (STARLINK-3931 )

导读

STARLINK-3931是美国SpaceX公司星链星座的卫星,于2022年5月13日发射,属于星链互联网星座组网卫星,运行在低地球轨道。星链项目旨在为全球提供高速低延迟宽带互联网服务,尤其覆盖偏远基础设施匮乏地区。该卫星属于星链扩张阶段的组网卫星,助力星座全球覆盖能力建设,通过标准化低轨卫星设计,支撑星链全球通信服务的扩展部署。

基本信息
目录编号:
52548
目录名称:
STARLINK-3931
国际标识:
2022-051R
轨道中心:
EARTH
卫星名称:
星链-3931
卫星全名:
星链-3931 (STARLINK-3931 )
卫星状态:
在轨 (已飞行1496 天)
发射日期:
2022-05-13 UTC
国别 :
美国 (US)
星等 :
--
轨道信息
数据来源 国际轨道数据
星历时间: 2026-06-17T06:51:30+0800
14小时前
查看轨道信息
半长轴: 6917.898km
偏心率: 0.0001339
轨道倾角: 53.160°
近地点辐角 95.316°
升交点赤经 43.420°
平近点角 264.799°
近地点: 538.834km
远地点: 540.688km
周期: 95.438分钟
每日圈数: 15.088345
详细信息
固有亮度:
5
最大亮度:
2.5
卫星平台:
Starlink v1.5
覆盖范围:
全球
运营商:
太空探索技术公司
运营商所在国:
美国
制造商(研发单位):
太空探索技术公司
制造商所在国:
美国
使用方式:
暂无
卫星简介
星链(Starlink)计划是由太空探索技术公司(SpaceX)提出的一个巨型低轨卫星互联网星座项目,计划在2019年至2024年间在太空搭建由约1.2万颗卫星组成的“星链”网络,其中1584颗将部署在地球上空550千米处的近地轨道,并从2020年开始工作。该卫星仍在工作。
2D轨道图
3D轨道图
轨道高度分析图
轨道倾角分析图
轨道综合分析图
查看轨道综合分析图